Location: Ripley
(48.3812°N, 115.4473°W)
Time: 01:15:49
(UTC+00:00)

EO-79 - Pass Details

Date: 07 July 2022
Orbit: 588 x 603 km, 98.0° (Epoch: 15 August)

Event Time Altitude Azimuth Distance (km) Brightness Sun altitude
Rises 08:24:03 0° 28° (NNE) 2,862 ? -18.6°
Reaches altitude 10° 08:26:49 10° 47° (NE) 1,956 ? -18.5°
Maximum altitude 08:29:47 18° 91° (E) 1,488 ? -18.4°
Enters shadow 08:31:54 13° 126° (SE) 1,740 ? -18.3°
